TimeMST,TemperatureF,Dew PointF,Humidity,Sea Level PressureIn,VisibilityMPH,Wind Direction,Wind SpeedMPH,Gust SpeedMPH,PrecipitationIn,Events,Conditions,WindDirDegrees,DateUTC
12:53 AM,36.0,33.1,89,29.61,10.0,ESE,8.1,-,N/A,,Clear,110,2013-03-09 07:53:00
1:53 AM,39.9,34.0,79,29.61,10.0,SSE,6.9,-,0.00,,Overcast,150,2013-03-09 08:53:00
2:53 AM,37.9,34.0,86,29.60,10.0,East,5.8,-,N/A,,Overcast,90,2013-03-09 09:53:00
3:53 AM,36.0,33.1,89,29.60,10.0,East,4.6,-,N/A,,Overcast,80,2013-03-09 10:53:00
4:53 AM,35.1,34.0,96,29.63,10.0,ENE,6.9,-,N/A,,Mostly Cloudy,70,2013-03-09 11:53:00
5:36 AM,35.6,35.6,100,29.68,10.0,NW,17.3,-,0.00,Rain,Light Rain,320,2013-03-09 12:36:00
5:53 AM,34.0,34.0,100,29.67,9.0,NNW,17.3,-,0.00,Rain,Light Rain,340,2013-03-09 12:53:00
6:11 AM,33.8,33.8,100,29.69,10.0,North,19.6,-,0.00,,Overcast,360,2013-03-09 13:11:00
6:23 AM,32.0,32.0,100,29.70,1.5,North,18.4,-,0.00,Snow,Light Snow,350,2013-03-09 13:23:00
6:53 AM,33.1,33.1,100,29.70,1.5,North,20.7,-,0.01,Snow,Light Snow,350,2013-03-09 13:53:00
7:13 AM,32.0,32.0,100,29.73,1.0,North,15.0,-,0.00,Snow,Light Snow,350,2013-03-09 14:13:00
7:53 AM,32.0,32.0,100,29.75,1.0,North,10.4,-,0.01,Snow,Light Snow,350,2013-03-09 14:53:00
8:53 AM,32.0,32.0,100,29.77,1.0,North,10.4,-,0.02,Snow,Light Snow,360,2013-03-09 15:53:00
9:27 AM,33.8,33.8,100,29.79,1.0,North,11.5,-,0.00,Snow,Light Snow,360,2013-03-09 16:27:00
9:53 AM,33.1,33.1,100,29.80,1.0,North,10.4,-,0.00,Snow,Light Snow,360,2013-03-09 16:53:00
10:00 AM,33.8,33.8,100,29.80,1.0,North,11.5,-,0.00,Snow,Light Snow,360,2013-03-09 17:00:00
10:09 AM,33.8,33.8,100,29.80,0.5,North,12.7,-,0.00,Snow,Light Snow,350,2013-03-09 17:09:00
10:22 AM,33.8,33.8,100,29.81,1.0,NNW,11.5,-,0.00,Snow,Light Snow,340,2013-03-09 17:22:00
10:49 AM,33.8,33.8,100,29.82,1.0,North,11.5,-,0.00,Snow,Light Snow,350,2013-03-09 17:49:00
10:53 AM,34.0,34.0,100,29.82,1.5,North,11.5,-,0.00,Snow,Light Snow,350,2013-03-09 17:53:00
11:25 AM,33.8,33.8,100,29.83,1.5,NNW,8.1,-,0.01,Snow,Light Snow,340,2013-03-09 18:25:00
11:36 AM,33.8,33.8,100,29.84,1.2,NNW,11.5,-,0.02,Snow,Light Snow,330,2013-03-09 18:36:00
11:53 AM,33.1,33.1,100,29.85,1.2,NW,11.5,-,0.04,Snow,Light Snow,320,2013-03-09 18:53:00
12:28 PM,35.6,33.8,93,29.85,1.5,NNW,12.7,-,0.01,Snow,Light Snow,330,2013-03-09 19:28:00
12:46 PM,35.6,33.8,93,29.84,10.0,NNW,15.0,-,0.01,Rain,Light Rain,340,2013-03-09 19:46:00
12:48 PM,35.6,35.6,100,29.84,10.0,NNW,13.8,-,0.01,Rain,Light Rain,340,2013-03-09 19:48:00
12:53 PM,35.1,35.1,100,29.84,9.0,NNW,13.8,-,0.01,Rain,Light Rain,330,2013-03-09 19:53:00
1:23 PM,35.6,35.6,100,29.84,7.0,NNW,15.0,-,0.00,Snow,Light Snow,340,2013-03-09 20:23:00
1:53 PM,35.1,34.0,96,29.84,6.0,North,15.0,-,0.01,Snow,Light Snow,350,2013-03-09 20:53:00
2:10 PM,33.8,33.8,100,29.86,2.0,North,13.8,-,0.00,Snow,Light Snow,350,2013-03-09 21:10:00
2:41 PM,33.8,33.8,100,29.86,4.0,North,12.7,-,0.01,Snow,Light Snow,350,2013-03-09 21:41:00
2:53 PM,34.0,34.0,100,29.87,7.0,North,11.5,-,0.01,Snow,Light Snow,350,2013-03-09 21:53:00
3:23 PM,37.4,35.6,93,29.87,10.0,NW,12.7,-,0.00,Rain,Light Rain,320,2013-03-09 22:23:00
3:30 PM,37.4,37.4,100,29.88,10.0,NW,16.1,-,0.00,Rain,Light Rain,320,2013-03-09 22:30:00
3:53 PM,37.0,36.0,96,29.88,10.0,NNW,13.8,-,0.00,,Overcast,330,2013-03-09 22:53:00
4:01 PM,37.4,35.6,93,29.89,10.0,NW,15.0,-,N/A,,Overcast,320,2013-03-09 23:01:00
4:53 PM,37.4,35.6,93,29.91,10.0,NW,11.5,-,N/A,,Mostly Cloudy,320,2013-03-09 23:53:00
5:53 PM,39.0,34.0,82,29.94,10.0,NW,11.5,-,N/A,,Scattered Clouds,320,2013-03-10 00:53:00
6:53 PM,36.0,30.0,79,29.99,10.0,NNW,9.2,-,N/A,,Clear,330,2013-03-10 01:53:00
7:53 PM,34.0,26.1,73,30.04,10.0,North,5.8,-,N/A,,Clear,350,2013-03-10 02:53:00
8:53 PM,36.0,25.0,64,30.07,10.0,Variable,3.5,-,N/A,,Mostly Cloudy,0,2013-03-10 03:53:00
9:53 PM,36.0,19.0,50,30.10,10.0,North,11.5,16.1,N/A,,Clear,10,2013-03-10 04:53:00
10:53 PM,34.0,21.0,59,30.12,10.0,NNW,8.1,-,N/A,,Clear,330,2013-03-10 05:53:00
11:53 PM,32.0,21.9,66,30.15,10.0,Calm,Calm,-,N/A,,Partly Cloudy,0,2013-03-10 06:53:00